星链-36547(STARLINK-36547)

导读 | 豆包AI

STARLINK-36547是美国太空探索技术公司(SpaceX)旗下星链(Starlink)星座的一员,于2026年1月18日发射。星链是全球低轨宽带互联网星座,该卫星采用平板设计与氪工质霍尔推进器,搭载Ku/Ka波段通信载荷,具备自主避撞能力,运行于近地轨道,旨在为全球提供高速低延迟宽带互联网接入服务。

基本信息
目录编号:
67520
目录名称:
STARLINK-36547
国际标识:
2026-012AD
轨道中心:
EARTH
卫星名称:
星链-36547
卫星全名:
星链-36547(STARLINK-36547)
卫星状态:
在轨 (已飞行127 天)
发射日期:
2026-01-18 UTC
国别 :
美国 (US)
星等 :
--
轨道信息
数据来源 国际轨道数据
星历时间: 2026-05-25T07:44:25+0800
8小时前
查看轨道信息
半长轴: 6861.199km
偏心率: 0.0000501
轨道倾角: 43.001°
近地点辐角 268.004°
升交点赤经 243.253°
平近点角 92.076°
近地点: 482.718km
远地点: 483.406km
周期: 94.267分钟
每日圈数: 15.275759
详细信息
固有亮度:
5
最大亮度:
2.5
卫星平台:
Starlink V1.0
覆盖范围:
全球
运营商:
太空探索技术公司
运营商所在国:
美国
制造商(研发单位):
太空探索技术公司
制造商所在国:
美国
使用方式:
暂无
卫星简介
Starlink 计划是 SpaceX 推出的全球卫星互联网项目,通过发射低轨道卫星,为全球尤其是偏远地区提供高速、低延迟的互联网服务。自 2019 年起,Starlink 已部署数千颗卫星,旨在缩小全球数字鸿沟,推动互联网普及。该项目还为军事、航空等行业提供通信支持,带来广泛经济效益。
2D轨道图
3D轨道图
轨道高度分析图
轨道倾角分析图
轨道综合分析图
查看轨道综合分析图